2 Carport Messungen

Zurück zum Überblick

Zeitpunkt Temperatur Luftfeuchte
23.01.2019 04:15:19 -2,1 C 66,0%
23.01.2019 04:08:17 -2,1 C 66,0%
23.01.2019 04:01:16 -2,0 C 66,0%
23.01.2019 03:54:14 -2,0 C 66,0%
23.01.2019 03:47:12 -1,9 C 66,0%
23.01.2019 03:40:10 -1,9 C 66,0%
23.01.2019 03:33:07 -1,8 C 66,0%
23.01.2019 03:26:05 -1,8 C 66,0%
23.01.2019 03:19:01 -1,7 C 66,0%
23.01.2019 03:11:59 -1,7 C 66,0%
23.01.2019 03:04:56 -1,6 C 66,0%
23.01.2019 02:57:53 -1,6 C 66,0%
23.01.2019 02:50:50 -1,5 C 66,0%
23.01.2019 02:43:47 -1,5 C 66,0%
23.01.2019 02:36:45 -1,4 C 65,0%
23.01.2019 02:29:42 -1,3 C 65,0%
23.01.2019 02:22:41 -1,3 C 65,0%
23.01.2019 02:15:38 -1,2 C 65,0%
23.01.2019 02:08:37 -1,2 C 65,0%
23.01.2019 02:01:34 -1,1 C 65,0%
23.01.2019 01:54:33 -1,1 C 65,0%
23.01.2019 01:47:33 -1,0 C 65,0%
23.01.2019 01:45:49 -0,9 C 65,0%
23.01.2019 01:33:30 -0,9 C 65,0%
23.01.2019 01:26:29 -0,8 C 65,0%
23.01.2019 01:24:45 -0,8 C 65,0%
23.01.2019 01:12:22 -0,7 C 65,0%
23.01.2019 01:05:19 -0,7 C 65,0%
23.01.2019 00:58:17 -0,6 C 65,0%
23.01.2019 00:56:33 -0,6 C 65,0%
23.01.2019 00:44:13 -0,6 C 65,0%
23.01.2019 00:37:11 -0,5 C 65,0%
23.01.2019 00:30:08 -0,6 C 66,0%
23.01.2019 00:23:07 -0,5 C 66,0%
23.01.2019 00:16:05 -0,6 C 66,0%
23.01.2019 00:09:04 -0,6 C 66,0%
23.01.2019 00:02:02 -0,7 C 66,0%
23.01.2019 00:00:18 -0,8 C 66,0%
22.01.2019 23:47:58 -1,0 C 68,0%
22.01.2019 23:40:55 -1,3 C 68,0%
22.01.2019 23:33:53 -1,4 C 67,0%
22.01.2019 23:26:51 -1,3 C 66,0%
22.01.2019 23:19:47 -1,1 C 66,0%
22.01.2019 23:12:45 -0,8 C 66,0%
22.01.2019 23:05:42 -0,7 C 66,0%
22.01.2019 22:58:39 -0,6 C 66,0%
22.01.2019 22:51:38 -0,6 C 66,0%
22.01.2019 22:44:35 -0,5 C 66,0%
22.01.2019 22:37:33 -0,5 C 66,0%
22.01.2019 22:30:32 -0,4 C 66,0%